Tracking 19246 objects as of 19-Aug-2018
HD Live streaming from Space Station
objects crossing your sky now

FENGYUN 1C DEB

Track FENGYUN 1C DEB now!
10-day predictions


NORAD ID: 29832
Int'l Code: 1999-025EA
Perigee: 578.5 km
Apogee: 869.3 km
Inclination: 98.8 °
Period: 99.1 minutes
Semi major axis: 7094 km
RCS: 0.1 m2 (medium)
Launch date: May 10, 1999
Source: People's Republic of China (PRC)
Launch site: Taiyaun Space Center, China (TSC)

Note: This is SATELLITE DEBRIS
aabbcc
Your satellite tracking list
Your tracking list is empty




NASA's NSSDC Master Catalog

Two Line Element Set (TLE):
1 29832U 99025EA  18231.33284149  .00000013  00000-0  13730-4 0  9990
2 29832  98.8045 149.9683 0204906 105.1061 257.2901 14.52719078614310
Source of the keplerian elements: AFSPC